When you browse on this site, cookies collect data to enhance your experience and personalize the content and advertising you see.
Visit our Privacy Policy to learn more. By continuing to use the site, you agree to this use of cookies and data.
  • In Österreich
  • Länderverzeichnis
  • Für 7 Tage
  • Wassertemperatur
  • Wetterkarte
  • News
  • Widgets
  • user-avatar
    Anmelden

    Stündliche Wetter Giumri

    Heute, 2 Juni, Dienstag

    Zeit Temperatur Niederschläge Wind Luftdruck Luftfeuchtigkeit
    00:00 +13°C° 0 mm 1 m/S 631 mmHg 58%
    01:00 +13°C° 0 mm 1 m/S 631 mmHg 58%
    02:00 +13°C° 0 mm 1 m/S 631 mmHg 58%
    03:00 +13°C° 0 mm 1 m/S 631 mmHg 58%
    04:00 +13°C° 0 mm 1 m/S 631 mmHg 59%
    05:00 +14°C° 0 mm 1 m/S 631 mmHg 61%
    06:00 +15°C° 0 mm 1 m/S 631 mmHg 63%
    07:00 +16°C° 0 mm 2 m/S 632 mmHg 59%
    08:00 +18°C° 0 mm 2 m/S 632 mmHg 55%
    09:00 +19°C° 0 mm 2 m/S 632 mmHg 50%
    10:00 +20°C° 0 mm 3 m/S 632 mmHg 49%
    11:00 +21°C° 0 mm 4 m/S 632 mmHg 47%
    12:00 +22°C° 0 mm 6 m/S 633 mmHg 45%
    13:00 +22°C° 0.2 mm 5 m/S 633 mmHg 45%
    14:00 +23°C° 0.2 mm 5 m/S 633 mmHg 45%
    15:00 +23°C° 0.2 mm 5 m/S 633 mmHg 45%
    16:00 +22°C° 0.1 mm 4 m/S 632 mmHg 50%
    17:00 +22°C° 0.1 mm 3 m/S 632 mmHg 55%
    18:00 +21°C° 0.1 mm 2 m/S 631 mmHg 60%
    19:00 +19°C° 0.1 mm 2 m/S 631 mmHg 64%
    20:00 +16°C° 0.1 mm 2 m/S 630 mmHg 68%
    21:00 +14°C° 0.1 mm 1 m/S 630 mmHg 72%
    22:00 +14°C° 0.1 mm 1 m/S 630 mmHg 72%
    23:00 +13°C° 0.1 mm 1 m/S 630 mmHg 73%

    Morgen, 3 Juni, Mittwoch

    Zeit Temperatur Niederschläge Wind Luftdruck Luftfeuchtigkeit
    00:00 +12°C° 0.1 mm 1 m/S 630 mmHg 73%
    01:00 +12°C° 0 mm 1 m/S 630 mmHg 71%
    02:00 +11°C° 0 mm 1 m/S 629 mmHg 69%
    03:00 +11°C° 0 mm 1 m/S 629 mmHg 67%
    04:00 +12°C° 0 mm 1 m/S 630 mmHg 67%
    05:00 +13°C° 0 mm 1 m/S 630 mmHg 66%
    06:00 +13°C° 0 mm 1 m/S 630 mmHg 65%
    07:00 +15°C° 0 mm 1 m/S 631 mmHg 60%
    08:00 +17°C° 0 mm 2 m/S 631 mmHg 54%
    09:00 +19°C° 0 mm 2 m/S 632 mmHg 49%
    10:00 +20°C° 0 mm 3 m/S 632 mmHg 47%
    11:00 +21°C° 0 mm 4 m/S 632 mmHg 45%
    12:00 +22°C° 0 mm 5 m/S 632 mmHg 43%
    13:00 +23°C° 0.2 mm 6 m/S 632 mmHg 43%
    14:00 +23°C° 0.2 mm 8 m/S 632 mmHg 43%
    15:00 +23°C° 0.2 mm 9 m/S 632 mmHg 43%
    16:00 +22°C° 0.1 mm 7 m/S 632 mmHg 49%
    17:00 +21°C° 0.1 mm 6 m/S 632 mmHg 55%
    18:00 +20°C° 0.1 mm 5 m/S 632 mmHg 60%
    19:00 +18°C° 0.3 mm 4 m/S 632 mmHg 61%
    20:00 +16°C° 0.3 mm 3 m/S 632 mmHg 62%
    21:00 +13°C° 0.3 mm 3 m/S 632 mmHg 63%
    22:00 +13°C° 0 mm 2 m/S 631 mmHg 62%
    23:00 +12°C° 0 mm 2 m/S 631 mmHg 61%

    übermorgen, 4 Juni, Donnerstag

    Zeit Temperatur Niederschläge Wind Luftdruck Luftfeuchtigkeit
    00:00 +11°C° 0 mm 1 m/S 631 mmHg 60%
    01:00 +10°C° 0 mm 1 m/S 631 mmHg 61%
    02:00 +10°C° 0 mm 1 m/S 631 mmHg 62%
    03:00 +9°C° 0 mm 1 m/S 631 mmHg 62%
    04:00 +10°C° 0 mm 1 m/S 632 mmHg 63%
    05:00 +11°C° 0 mm 1 m/S 632 mmHg 64%
    06:00 +12°C° 0 mm 1 m/S 633 mmHg 65%
    07:00 +14°C° 0 mm 1 m/S 633 mmHg 58%
    08:00 +16°C° 0 mm 1 m/S 634 mmHg 52%
    09:00 +19°C° 0 mm 1 m/S 634 mmHg 45%
    10:00 +19°C° 0 mm 2 m/S 634 mmHg 42%
    11:00 +21°C° 0 mm 3 m/S 634 mmHg 39%
    12:00 +22°C° 0 mm 4 m/S 635 mmHg 35%
    13:00 +22°C° 0 mm 4 m/S 635 mmHg 35%
    14:00 +23°C° 0 mm 4 m/S 635 mmHg 35%
    15:00 +23°C° 0 mm 4 m/S 635 mmHg 35%
    16:00 +22°C° 0 mm 4 m/S 635 mmHg 40%
    17:00 +22°C° 0 mm 3 m/S 635 mmHg 46%
    18:00 +21°C° 0 mm 3 m/S 634 mmHg 52%
    19:00 +18°C° 0 mm 2 m/S 634 mmHg 52%
    20:00 +16°C° 0 mm 2 m/S 634 mmHg 53%
    21:00 +14°C° 0 mm 1 m/S 634 mmHg 54%
    22:00 +13°C° 0 mm 1 m/S 634 mmHg 55%
    23:00 +12°C° 0 mm 1 m/S 634 mmHg 57%

    5 Juni, Freitag

    Zeit Temperatur Niederschläge Wind Luftdruck Luftfeuchtigkeit
    00:00 +12°C° 0 mm 1 m/S 634 mmHg 59%
    01:00 +11°C° 0 mm 1 m/S 634 mmHg 60%
    02:00 +11°C° 0 mm 1 m/S 634 mmHg 61%
    03:00 +11°C° 0 mm 1 m/S 634 mmHg 63%
    04:00 +12°C° 0 mm 1 m/S 635 mmHg 64%
    05:00 +12°C° 0 mm 1 m/S 635 mmHg 65%
    06:00 +13°C° 0 mm 1 m/S 636 mmHg 66%
    07:00 +15°C° 0 mm 1 m/S 636 mmHg 60%
    08:00 +17°C° 0 mm 2 m/S 636 mmHg 55%
    09:00 +19°C° 0 mm 2 m/S 637 mmHg 49%
    10:00 +20°C° 0 mm 3 m/S 637 mmHg 45%
    11:00 +21°C° 0 mm 4 m/S 637 mmHg 42%
    12:00 +22°C° 0 mm 4 m/S 637 mmHg 39%
    13:00 +22°C° 0 mm 4 m/S 637 mmHg 39%
    14:00 +22°C° 0 mm 5 m/S 637 mmHg 39%
    15:00 +22°C° 0 mm 5 m/S 637 mmHg 39%
    16:00 +21°C° 0.1 mm 4 m/S 637 mmHg 45%
    17:00 +20°C° 0.1 mm 4 m/S 637 mmHg 51%
    18:00 +19°C° 0.1 mm 3 m/S 637 mmHg 57%
    19:00 +17°C° 0.1 mm 3 m/S 637 mmHg 63%
    20:00 +15°C° 0.1 mm 2 m/S 636 mmHg 68%
    21:00 +12°C° 0.1 mm 2 m/S 636 mmHg 74%
    22:00 +12°C° 0 mm 2 m/S 636 mmHg 74%
    23:00 +11°C° 0 mm 1 m/S 636 mmHg 74%

    6 Juni, Samstag

    Zeit Temperatur Niederschläge Wind Luftdruck Luftfeuchtigkeit
    00:00 +11°C° 0 mm 1 m/S 636 mmHg 74%
    01:00 +10°C° 0 mm 1 m/S 635 mmHg 74%
    02:00 +10°C° 0 mm 1 m/S 635 mmHg 73%
    03:00 +10°C° 0 mm 1 m/S 635 mmHg 73%
    04:00 +11°C° 0 mm 1 m/S 635 mmHg 73%
    05:00 +11°C° 0 mm 1 m/S 636 mmHg 73%
    06:00 +12°C° 0 mm 1 m/S 636 mmHg 73%
    07:00 +14°C° 0 mm 1 m/S 637 mmHg 67%
    08:00 +16°C° 0 mm 1 m/S 637 mmHg 62%
    09:00 +20°C° 0 mm 1 m/S 638 mmHg 56%
    10:00 +21°C° 0.3 mm 1 m/S 638 mmHg 52%
    11:00 +22°C° 0.3 mm 1 m/S 638 mmHg 48%
    12:00 +23°C° 0.3 mm 1 m/S 638 mmHg 44%
    13:00 +23°C° 0.3 mm 2 m/S 638 mmHg 44%
    14:00 +23°C° 0.3 mm 2 m/S 638 mmHg 44%
    15:00 +23°C° 0.3 mm 2 m/S 637 mmHg 43%
    16:00 +21°C° 0.3 mm 3 m/S 637 mmHg 50%
    17:00 +20°C° 0.3 mm 3 m/S 637 mmHg 58%
    18:00 +19°C° 0.3 mm 3 m/S 637 mmHg 65%
    19:00 +17°C° 0 mm 3 m/S 636 mmHg 69%
    20:00 +15°C° 0 mm 2 m/S 636 mmHg 74%
    21:00 +13°C° 0 mm 2 m/S 636 mmHg 79%
    22:00 +12°C° 0 mm 2 m/S 636 mmHg 78%
    23:00 +12°C° 0 mm 2 m/S 636 mmHg 78%

    7 Juni, Sonntag

    Zeit Temperatur Niederschläge Wind Luftdruck Luftfeuchtigkeit
    00:00 +10°C° 0 mm 2 m/S 636 mmHg 78%
    01:00 +11°C° 0 mm 1 m/S 635 mmHg 77%
    02:00 +10°C° 0 mm 1 m/S 635 mmHg 77%
    03:00 +10°C° 0 mm 1 m/S 635 mmHg 76%
    04:00 +11°C° 0 mm 1 m/S 635 mmHg 75%
    05:00 +12°C° 0 mm 1 m/S 636 mmHg 73%
    06:00 +13°C° 0 mm 1 m/S 636 mmHg 72%
    07:00 +15°C° 0 mm 1 m/S 637 mmHg 66%
    08:00 +18°C° 0 mm 1 m/S 637 mmHg 61%
    09:00 +20°C° 0 mm 1 m/S 638 mmHg 56%
    10:00 +21°C° 0 mm 1 m/S 638 mmHg 52%
    11:00 +23°C° 0 mm 1 m/S 638 mmHg 47%
    12:00 +24°C° 0 mm 1 m/S 638 mmHg 43%
    13:00 +24°C° 0 mm 1 m/S 638 mmHg 42%
    14:00 +25°C° 0 mm 1 m/S 638 mmHg 41%
    15:00 +25°C° 0 mm 1 m/S 638 mmHg 40%
    16:00 +25°C° 0 mm 1 m/S 638 mmHg 45%
    17:00 +24°C° 0 mm 1 m/S 638 mmHg 50%
    18:00 +24°C° 0 mm 1 m/S 637 mmHg 54%
    19:00 +21°C° 0 mm 1 m/S 637 mmHg 61%
    20:00 +19°C° 0 mm 1 m/S 637 mmHg 67%
    21:00 +15°C° 0 mm 1 m/S 636 mmHg 74%
    22:00 +15°C° 0 mm 1 m/S 636 mmHg 75%
    23:00 +14°C° 0 mm 2 m/S 636 mmHg 76%
    Mehr zeigen